Theta_e
353 353 353 353 353 352 351 349 348 346 344 343 341 339 337 338 337 335 335 342 345 347 348 349 355 359 360 358 356 355 355 352 351 349 349 349 349 349 349 349 349 349 347
355 353 352 352 352 352 352 351 350 349 346 344 341 340 339 339 338 337 333 334 342 345 349 351 353 360 361 360 357 356 354 354 352 350 349 348 348 348 349 349 349 349 348
354 356 353 352 353 354 354 352 351 350 347 346 344 344 342 341 339 340 339 337 338 344 347 351 354 356 359 360 359 357 354 353 353 351 349 348 348 347 348 349 349 349 348
355 356 354 352 353 352 351 350 349 347 346 345 344 344 342 343 343 342 342 341 339 342 346 348 353 354 355 358 359 358 355 352 352 351 350 349 348 347 347 348 348 348 348
356 356 353 354 356 352 351 348 348 347 345 345 343 341 341 342 343 341 343 343 342 341 342 346 347 350 352 354 357 359 358 354 350 350 351 350 349 348 348 347 348 348 348
352 353 353 354 353 351 350 350 348 348 345 344 342 341 343 343 342 342 342 340 341 342 345 347 347 346 348 351 354 356 358 357 353 351 349 349 349 349 348 348 347 347 347
352 352 351 351 351 349 350 350 347 345 344 346 340 342 343 345 344 341 339 340 343 343 345 346 347 347 346 348 350 352 356 358 357 354 349 347 348 349 349 348 348 347 346
347 347 348 345 346 345 347 347 345 343 342 345 339 339 333 337 339 341 340 341 344 342 342 344 345 348 349 348 350 349 352 356 358 357 352 347 347 348 349 349 348 347 346
341 343 341 342 344 344 340 344 343 339 338 341 343 338 332 327 335 338 339 339 342 340 340 341 343 343 349 349 349 350 349 350 355 355 355 350 348 349 349 348 348 347 347
338 340 340 341 342 342 342 340 339 340 339 335 340 338 343 340 330 327 335 336 338 337 339 337 337 341 344 346 347 346 344 344 350 352 354 354 352 351 350 349 347 346 347
338 338 340 341 341 339 341 342 341 341 341 338 336 335 336 338 339 332 327 330 334 335 336 336 336 335 338 340 343 342 340 339 341 344 347 350 352 352 351 349 348 347 347
336 338 337 339 339 336 336 336 338 340 338 336 337 337 332 329 329 329 327 329 329 333 334 335 336 335 336 337 340 338 337 335 334 335 338 342 346 347 349 349 349 350 348
331 335 335 334 331 333 332 332 333 333 335 334 335 332 332 332 332 332 328 324 327 331 331 335 336 336 336 337 338 338 338 333 330 330 331 333 338 341 341 342 345 348 347
330 335 333 332 331 329 328 329 326 327 331 331 333 333 331 332 332 333 330 329 325 325 329 331 334 336 337 339 339 338 343 332 329 326 326 328 330 332 333 335 335 336 337
329 333 332 331 329 328 327 327 323 326 327 329 329 331 328 329 332 333 334 333 324 318 321 329 330 338 336 336 339 342 342 336 329 325 324 324 325 326 327 327 328 329 329
333 331 331 330 328 327 326 327 323 324 324 323 323 326 327 324 327 327 329 333 330 324 319 326 330 336 338 336 337 340 339 334 327 325 324 322 322 322 323 323 324 325 327
330 330 330 329 327 326 326 325 324 322 321 322 324 324 324 327 322 323 325 326 326 328 320 325 330 335 336 336 338 340 340 342 340 324 324 322 320 319 320 321 321 322 323
325 324 325 326 326 325 325 324 321 318 319 318 320 322 322 321 325 325 323 325 325 326 326 322 328 330 334 337 337 338 336 336 340 328 322 321 318 318 317 317 317 318 318
319 320 321 321 322 323 324 324 322 319 319 320 321 320 320 321 322 320 322 320 320 324 328 323 322 329 331 334 335 337 335 335 339 331 321 320 319 320 318 317 315 315 313
315 316 317 317 318 320 321 322 322 321 321 320 322 322 319 318 319 320 319 319 320 319 321 320 320 325 330 333 330 329 328 331 330 332 330 327 324 320 318 316 315 315 312
311 312 312 312 314 316 315 319 320 321 322 321 322 320 321 320 316 317 315 317 319 316 316 317 318 320 323 323 323 326 325 328 329 332 333 334 334 334 333 318 325 318 315
309 309 309 309 311 311 306 306 312 319 320 320 319 320 320 317 316 312 312 312 314 315 317 315 316 315 318 323 324 323 325 323 322 332 328 327 332 331 332 333 319 313 313
307 307 307 308 308 310 303 302 304 311 315 318 319 319 318 316 315 316 311 309 309 308 310 319 319 319 319 322 323 321 326 326 326 327 325 325 329 324 325 322 312 311 307
305 304 305 305 306 307 301 300 301 308 310 314 316 316 317 316 314 314 314 314 315 317 318 317 319 322 323 325 325 324 322 324 320 321 325 316 322 319 328 330 306 305 306
302 302 302 301 300 303 299 298 301 307 308 310 313 314 312 312 306 301 312 312 314 315 314 308 309 307 305 304 315 317 314 313 313 314 319 317 321 324 328 329 323 304 303
297 298 297 298 299 300 299 297 299 305 306 307 308 309 304 306 301 299 310 312 311 313 312 314 314 310 309 315 307 319 317 313 314 312 319 316 321 324 320 325 318 316 311
Wind_Speed
7 6 6 6 6 5 6 6 7 7 8 9 9 9 9 7 10 6 6 8 10 12 12 13 16 16 16 17 15 15 15 16 15 14 13 12 12 11 12 12 11 11 10
7 7 7 7 7 7 7 6 7 7 7 8 9 9 10 9 9 9 7 7 10 11 11 12 14 16 16 17 14 15 15 17 16 15 15 14 12 13 14 13 13 13 12
9 10 7 8 8 7 8 8 8 7 8 8 9 8 8 9 10 11 9 7 7 10 10 10 13 15 15 15 14 16 17 17 16 15 16 15 14 15 14 13 14 13 12
9 8 7 7 7 6 7 7 7 7 8 7 8 8 8 8 10 10 10 8 7 8 7 10 11 13 12 15 17 17 16 17 17 18 19 19 18 17 15 16 16 15 13
8 11 6 7 7 7 6 7 8 7 7 7 7 8 9 8 8 8 11 9 8 9 7 8 11 13 15 17 19 17 18 18 17 19 19 19 19 18 17 18 17 17 16
9 8 7 7 6 7 7 7 8 7 8 8 8 10 8 8 8 9 9 7 8 8 8 9 7 7 13 16 19 18 19 20 18 20 20 19 19 19 18 18 18 17 16
7 8 7 7 6 7 8 8 8 9 9 7 7 8 9 11 12 9 8 8 9 8 7 6 6 6 6 13 16 17 20 21 19 20 19 19 18 19 19 19 18 17 16
6 6 5 4 4 4 6 7 8 7 7 6 6 6 6 5 7 9 8 9 10 8 11 12 9 9 8 7 10 14 20 20 19 20 19 18 18 18 19 20 18 18 17
5 5 4 3 3 4 4 6 7 8 8 6 11 7 4 6 2 5 11 10 10 10 10 8 10 11 8 7 7 10 15 17 19 20 19 16 17 18 20 19 18 18 17
5 5 4 4 3 2 4 4 5 6 6 7 4 9 14 9 6 8 5 8 9 12 11 11 10 10 10 8 9 10 10 15 18 18 18 17 18 19 18 17 18 17 18
7 7 7 5 4 4 4 5 5 6 7 6 6 4 6 8 11 10 12 10 7 9 10 10 8 7 9 12 10 11 12 16 16 16 15 15 15 16 19 18 17 18 19
6 7 7 6 5 5 5 5 5 6 6 6 6 6 6 4 4 7 9 13 13 12 10 9 10 9 10 11 15 14 11 15 15 15 14 14 14 13 13 14 14 17 18
7 9 8 8 6 6 6 5 5 6 6 7 7 6 6 8 8 7 8 8 13 12 10 10 10 10 9 11 13 14 15 17 15 14 13 14 12 13 10 9 7 12 16
9 10 10 9 9 8 6 5 5 6 6 7 8 7 7 7 7 9 9 10 12 12 11 14 9 10 9 10 11 8 11 12 14 12 14 14 12 12 9 8 7 9 12
8 10 11 11 10 9 9 7 6 8 7 8 8 8 8 7 7 8 9 8 8 8 11 13 12 9 9 8 8 10 12 9 14 15 15 12 13 11 10 8 9 11 11
10 10 12 12 12 11 11 10 8 9 9 8 7 8 8 8 8 8 9 8 7 9 12 10 13 13 10 9 11 11 13 11 10 13 15 14 14 13 12 12 11 11 11
11 12 12 12 13 13 13 12 12 11 11 11 10 10 11 9 8 8 8 9 10 9 11 9 14 15 14 16 12 9 8 7 7 13 16 15 15 12 12 9 10 11 11
11 12 13 14 15 15 15 15 15 14 15 15 14 12 13 8 11 10 9 11 11 12 11 15 15 13 13 14 13 11 7 5 7 8 14 14 11 11 10 10 11 11 12
9 11 13 14 15 17 17 17 18 18 17 16 15 15 15 13 11 10 11 11 11 11 11 10 11 13 12 10 9 10 8 7 6 5 9 9 12 14 10 11 11 12 11
10 11 12 13 15 16 17 18 19 19 19 18 16 16 17 16 14 13 11 12 12 13 11 10 10 12 11 10 8 8 8 7 5 6 9 7 11 9 10 9 11 11 10
13 14 15 16 16 15 14 17 18 19 19 19 18 19 17 18 18 14 11 11 12 13 14 13 9 10 11 9 10 8 9 10 6 5 6 7 7 7 6 7 5 11 10
16 16 17 18 17 14 15 15 18 17 18 19 18 19 19 18 18 16 16 18 16 15 16 16 14 11 15 10 10 11 12 10 12 8 5 5 6 7 6 7 5 4 10
16 17 17 18 19 18 14 14 14 18 18 18 19 18 18 16 16 17 16 18 19 21 23 19 18 16 12 12 10 10 12 12 11 4 5 6 3 5 5 4 4 8 8
15 15 16 17 18 16 14 14 16 17 18 18 17 19 19 15 14 15 17 18 19 19 18 16 21 19 17 13 13 11 9 6 2 3 3 4 3 4 3 3 7 6 4
15 15 15 14 17 14 14 13 12 15 16 16 15 12 11 12 12 12 18 20 23 20 16 21 19 14 10 11 11 4 4 4 4 5 5 4 3 3 3 2 3 9 3
13 13 12 14 17 16 18 14 13 12 16 13 13 14 13 17 18 20 21 21 22 18 16 17 14 16 15 16 17 14 7 7 7 5 6 6 5 5 4 3 3 3 3
Wind_Direction
216 218 225 230 236 224 227 236 244 239 245 246 244 249 262 256 267 271 272 267 255 253 259 260 258 227 224 228 226 226 232 231 229 235 237 228 234 239 239 235 224 235 234
220 223 225 232 239 245 247 247 246 258 257 264 258 253 260 267 268 269 269 275 251 262 256 258 258 237 227 229 225 223 226 228 227 229 231 231 229 230 234 240 232 227 228
221 227 227 235 240 243 248 251 252 250 256 257 262 263 258 260 270 272 269 264 266 237 244 244 239 238 236 237 230 227 227 226 222 223 226 227 227 225 233 232 243 235 232
210 235 231 239 241 238 241 243 252 256 256 257 271 261 254 251 256 263 265 264 261 267 242 228 233 239 232 236 238 234 229 230 218 218 221 220 220 227 221 226 224 230 229
211 232 241 251 249 247 245 245 244 243 260 261 265 269 259 252 254 257 259 258 255 261 270 257 231 233 226 227 238 238 232 231 219 225 225 223 221 224 221 225 223 220 219
216 225 238 244 244 249 250 252 264 258 267 270 264 268 266 263 254 249 254 250 240 244 250 258 268 259 233 238 233 236 240 237 221 223 227 225 222 224 224 224 222 220 223
207 213 232 240 239 245 254 254 257 259 261 251 266 262 263 251 246 242 228 218 207 199 205 237 247 253 251 226 234 230 234 238 231 225 223 223 221 222 224 224 222 222 218
166 182 200 211 227 236 244 252 247 252 254 238 250 276 277 227 239 234 221 225 228 200 193 188 215 237 244 250 263 234 229 231 234 232 227 217 219 220 223 222 219 223 219
162 171 169 185 205 228 258 261 255 244 253 242 231 242 237 253 280 203 232 238 242 248 257 255 229 234 235 246 242 256 231 225 233 238 236 218 222 220 224 223 221 221 216
169 169 182 186 204 230 242 246 255 261 258 257 236 238 254 276 272 272 226 244 248 254 255 250 244 244 253 249 250 237 241 220 229 237 234 228 223 221 224 222 222 221 220
192 193 192 189 210 233 238 250 257 253 253 252 246 257 250 256 259 264 270 265 249 251 264 272 279 274 248 257 270 267 219 225 223 219 223 228 232 222 220 221 225 221 225
193 200 190 192 204 223 238 255 268 262 260 265 268 261 247 243 252 257 261 270 278 284 286 279 265 259 264 267 251 248 236 231 228 216 215 214 218 221 217 215 234 225 210
202 202 201 203 208 215 224 243 254 268 263 260 260 261 254 262 271 265 258 261 277 279 282 280 274 272 260 257 254 245 230 228 216 217 215 224 207 214 204 214 220 206 213
203 201 206 212 216 216 218 220 242 252 250 248 247 244 260 265 266 264 256 266 268 266 256 267 286 274 270 260 258 241 256 219 209 214 210 211 209 210 203 203 221 227 231
213 206 207 214 221 221 220 217 228 233 242 245 246 241 245 256 258 262 265 260 258 270 269 273 270 283 295 287 256 263 261 243 205 199 213 208 218 206 205 201 219 239 238
234 223 216 218 222 222 222 222 229 227 229 238 246 242 246 260 258 258 257 258 248 253 267 263 273 285 279 285 282 271 255 239 201 206 209 203 203 205 204 202 211 222 235
259 258 255 252 245 235 228 225 230 234 231 234 237 241 247 248 255 261 264 266 261 248 257 262 268 270 267 267 265 243 254 262 244 207 215 191 200 202 203 206 221 222 222
252 251 252 251 250 247 243 237 237 234 231 233 233 235 244 242 242 253 255 256 256 264 260 263 267 270 261 266 265 267 259 273 270 197 215 205 188 202 199 209 222 226 231
279 271 265 261 258 253 248 241 240 240 239 237 235 233 238 244 244 254 258 267 264 263 264 266 265 265 270 269 258 252 263 253 261 248 222 220 197 207 196 209 214 224 223
286 282 276 271 266 264 261 257 250 244 241 239 238 236 235 241 243 247 256 269 274 270 260 260 261 261 257 263 270 269 257 226 235 208 224 238 190 202 213 211 211 218 218
280 277 275 271 268 261 258 254 250 250 246 243 239 237 236 237 239 242 253 265 272 270 268 259 256 265 260 250 246 261 277 276 216 220 213 201 200 196 193 216 234 227 224
279 279 275 273 271 265 263 238 247 257 253 249 243 236 239 229 233 236 242 244 256 266 263 265 259 247 255 262 262 262 273 274 257 208 196 195 205 208 219 227 194 225 224
281 278 277 275 273 272 260 250 246 260 258 253 248 244 237 235 225 242 235 233 240 245 246 259 257 247 243 254 271 257 248 245 246 196 209 205 171 225 236 231 53 280 265
279 280 278 276 277 277 269 250 249 262 266 260 249 247 242 237 242 247 252 259 260 258 247 239 247 252 254 258 258 266 244 226 236 219 159 190 170 218 225 124 56 2 239
280 277 277 280 275 272 270 260 262 272 265 261 249 238 238 241 240 232 255 264 266 264 247 230 235 240 234 238 233 180 208 177 201 194 190 177 150 181 214 154 63 42 55
272 273 273 269 270 270 270 258 258 272 265 260 260 262 239 249 256 245 251 257 258 249 249 246 226 227 223 231 194 210 201 198 205 194 160 183 163 179 190 114 58 38 74